Location: Unspecified
(52.0178°N, 0.0000°E)
Time: 22:01:45
(UTC+00:00)

O/OREOS (USA 219) - Pass Details

Date: 29 July 2019
Orbit: 621 x 646 km, 72.0° (Epoch: 22 May)

Event Time Altitude Azimuth Distance (km) Brightness Sun altitude
Exits shadow 01:27:11 - 138° (SE) 2,098 ? -17.0°
Reaches altitude 10° 01:27:29 10° 135° (SE) 2,027 ? -17.0°
Maximum altitude 01:30:08 15° 100° (E) 1,695 ? -16.8°
Drops below altitude 10° 01:32:46 10° 64° (ENE) 2,028 ? -16.7°
Sets 01:35:50 0° 42° (NE) 2,937 ? -16.5°
